User: anonymous   Login
Location: *
(35.2348°S, 91.3916°E)
Time: 19:41:36
(UTC+00:00)
Language:

Cosmos 2221 - Orbit

View from above orbital plane
View from above orbital plane
View from above satellite
View from above satellite

Ground track
Ground track

The orbit data is extracted from the following two-line orbital elements,

1 22236U 92080A   19341.41555044  .00000164  00000-0  15231-4 0  9997
2 22236  82.5077 286.0321 0015229 240.1162 119.8543 14.87877775461613
Epoch (UTC): 07 December 2019 09:58:23
Eccentricity: 0.0015229
inclination: 82.5077°
perigee height: 594 km
apogee height: 615 km
right ascension of ascending node: 286.0321°
argument of perigee: 240.1162°
revolutions per day: 14.87877775
mean anomaly at epoch: 119.8543°
orbit number at epoch: 46161

The dashed part of the orbit path shows where the satellite is in the earth's shadow,  

DLR